Terug naar catalogus

SL-8 DEB

ActiefVLEO
NORAD 5858·DEBRIS·🇷🇺 Russia

Gelanceerd Dec 17, 1971 vanaf Plesetsk Cosmodrome

Loading…

Volgende Passages (komende 24 uur)

TLE

VersSource: Space-Track

Epoch: Sep 14, 2026, 13:23 UTC

1  5858U 71114D   26257.55806348  .00015460  00000-0  62405-3 0  9997
2  5858  73.9796 320.4668 0002535  49.6980 310.4441 15.24779186919027

Volg SL-8 DEB in realtime met AllMySat

Download on the App Store